This demonstration page uses our WeatherBlox Daily Observations layout. Learn more.

Left ArrowRight Arrow

34.74481, -87.66753

Hourly Observations for January 25, 2020

Temp ( °F °C ) Dew Point ( °F °C ) Humidity (%) Winds ( mph kmh ) Pressure ( in mb ) Visibility ( mi km ) Precip ( " mm )
12:53 am 00:53 Cloudy 40 4.4 35 1.7 83 83 W 8 13 30.08 1019 10 16 0.00 0.00
1:53 am 01:53 Cloudy 40 4.4 34 1.1 79 79 W 9 15 30.08 1019 10 16 0.00 0.00
2:04 am 02:04 Cloudy 40 4.4 34 1.1 79 79 W 9 15 30.10 1019 10 16 0.00 0.00
2:21 am 02:21 Cloudy 40 4.4 34 1.1 79 79 W 8 13 30.10 1019 10 16 0.00 0.00
2:50 am 02:50 Cloudy 39 4 34 1 81 81 WNW 14 22 30.10 1019 10 16 0.00 0.00
2:53 am 02:53 Cloudy 39 3.9 33 0.6 79 79 WNW 9 15 30.08 1019 10 16 0.00 0.00
3:12 am 03:12 Cloudy 39 3.9 33 0.6 79 79 W 8 13 30.11 1020 10 16 0.00 0.00
3:53 am 03:53 Cloudy 39 3.9 34 1.1 82 82 W 7 11 30.09 1019 10 16 0.00 0.00
4:07 am 04:07 Cloudy 39 3.9 34 1.1 82 82 W 7 11 30.11 1020 10 16 0.00 0.00
4:53 am 04:53 Cloudy 39 3.9 34 1.1 82 82 W 8 13 30.10 1019 10 16 0.00 0.00
5:02 am 05:02 Cloudy 39 3.9 34 1.1 82 82 W 9 15 30.12 1020 10 16 0.00 0.00
5:33 am 05:33 Cloudy 39 3.9 33 0.6 79 79 WNW 8 13 30.12 1020 10 16 0.00 0.00
5:53 am 05:53 Cloudy 39 3.9 32 0 76 76 WNW 8 13 30.11 1020 10 16 0.00 0.00
6:53 am 06:53 Cloudy 39 3.9 31 -0.6 73 73 WNW 8 13 30.13 1020 10 16 0.00 0.00
7:53 am 07:53 Cloudy 39 3.9 30 -1.1 70 70 NNW 5 7 30.14 1021 10 16 0.00 0.00
8:53 am 08:53 Cloudy 40 4.4 30 -1.1 68 68 NW 6 9 30.16 1022 10 16 0.00 0.00
9:53 am 09:53 Cloudy 40 4.4 31 -0.6 70 70 WNW 9 15 30.19 1022 10 16 0.00 0.00
10:53 am 10:53 Cloudy 41 5 31 -0.6 67 67 W 6 9 30.19 1022 10 16 0.00 0.00
11:53 am 11:53 Cloudy 41 5 31 -0.6 67 67 W 8 13 30.17 1022 10 16 0.00 0.00
12:53 pm 12:53 Cloudy 41 5 31 -0.6 67 67 W 6 9 30.14 1021 10 16 0.00 0.00
1:53 pm 13:53 Cloudy 42 5.6 31 -0.6 65 65 W 10 17 30.13 1020 10 16 0.00 0.00
2:53 pm 14:53 Cloudy 43 6.1 31 -0.6 63 63 W 9 15 30.12 1020 10 16 0.00 0.00
3:53 pm 15:53 Cloudy 43 6.1 31 -0.6 63 63 W 8 13 30.13 1020 10 16 0.00 0.00
4:32 pm 16:32 Partly Cloudy 42 5.6 31 -0.6 65 65 W 8 13 30.14 1021 10 16 0.00 0.00
4:53 pm 16:53 Sunny 41 5 31 -0.6 67 67 W 6 9 30.13 1020 10 16 0.00 0.00
5:53 pm 17:53 Clear 40 4.4 31 -0.6 70 70 Calm 30.14 1021 10 16 0.00 0.00
6:53 pm 18:53 Clear 37 2.8 31 -0.6 79 79 Calm 30.15 1021 10 16 0.00 0.00
7:53 pm 19:53 Clear 35 1.7 31 -0.6 85 85 Calm 30.13 1020 10 16 0.00 0.00
8:53 pm 20:53 Clear 35 1.7 32 0 89 89 Calm 30.14 1021 10 16 0.00 0.00
9:53 pm 21:53 Clear 34 1.1 31 -0.6 89 89 Calm 30.14 1021 10 16 0.00 0.00
10:53 pm 22:53 Clear 34 1.1 31 -0.6 89 89 Calm 30.14 1021 10 16 0.00 0.00
11:53 pm 23:53 Cloudy 34 1.1 31 -0.6 89 89 Calm 30.13 1020 10 16 0.00 0.00

Powered by AerisWeather